When you browse on this site, cookies collect data to enhance your experience and personalize the content and advertising you see.
Visit our Privacy Policy to learn more. By continuing to use the site, you agree to this use of cookies and data.
  • In United Kingdom
  • List of Countries
  • For 7 days
  • Water Temperature
  • Satellite Maps
  • Weather Map
  • Weather Widgets
  • user-avatar
    Login

    Hourly Weather Gyor

    Today, 27 June, Thursday

    Time Temperature Precipitation Wind Pressure Humidity
    00:00 +24°C° 0 mm 3 mps 755 mmHg 79%
    01:00 +24°C° 0 mm 3 mps 755 mmHg 82%
    02:00 +24°C° 0 mm 3 mps 755 mmHg 83%
    03:00 +24°C° 0 mm 3 mps 754 mmHg 84%
    04:00 +22°C° 0 mm 3 mps 754 mmHg 85%
    05:00 +25°C° 0 mm 3 mps 754 mmHg 82%
    06:00 +26°C° 0 mm 3 mps 754 mmHg 79%
    07:00 +28°C° 0 mm 2 mps 754 mmHg 76%
    08:00 +29°C° 0 mm 3 mps 754 mmHg 72%
    09:00 +32°C° 0 mm 4 mps 753 mmHg 68%
    10:00 +33°C° 0 mm 4 mps 753 mmHg 65%
    11:00 +34°C° 0.2 mm 5 mps 753 mmHg 62%
    12:00 +34°C° 0.2 mm 5 mps 753 mmHg 60%
    13:00 +35°C° 0.2 mm 6 mps 753 mmHg 58%
    14:00 +34°C° 0.1 mm 6 mps 752 mmHg 57%
    15:00 +33°C° 0.1 mm 7 mps 752 mmHg 56%
    16:00 +33°C° 0.1 mm 7 mps 752 mmHg 56%
    17:00 +30°C° 0 mm 7 mps 752 mmHg 58%
    18:00 +27°C° 0 mm 6 mps 752 mmHg 61%
    19:00 +25°C° 0 mm 5 mps 752 mmHg 63%
    20:00 +23°C° 0 mm 5 mps 753 mmHg 64%
    21:00 +22°C° 0 mm 5 mps 753 mmHg 66%
    22:00 +21°C° 0 mm 4 mps 754 mmHg 67%
    23:00 +20°C° 0 mm 4 mps 754 mmHg 66%

    Tomorrow, 28 June, Friday

    Time Temperature Precipitation Wind Pressure Humidity
    00:00 +19°C° 0 mm 4 mps 754 mmHg 66%
    01:00 +18°C° 0 mm 4 mps 754 mmHg 66%
    02:00 +18°C° 0 mm 4 mps 754 mmHg 67%
    03:00 +17°C° 0 mm 4 mps 754 mmHg 68%
    04:00 +17°C° 0 mm 4 mps 754 mmHg 70%
    05:00 +18°C° 0 mm 4 mps 755 mmHg 69%
    06:00 +19°C° 0 mm 5 mps 755 mmHg 68%
    07:00 +20°C° 0 mm 5 mps 755 mmHg 68%
    08:00 +21°C° 0 mm 6 mps 755 mmHg 65%
    09:00 +22°C° 0 mm 6 mps 755 mmHg 62%
    10:00 +23°C° 0 mm 6 mps 755 mmHg 59%
    11:00 +24°C° 0 mm 6 mps 755 mmHg 57%
    12:00 +24°C° 0 mm 6 mps 755 mmHg 55%
    13:00 +26°C° 0 mm 6 mps 755 mmHg 54%
    14:00 +26°C° 0 mm 6 mps 754 mmHg 54%
    15:00 +26°C° 0 mm 6 mps 754 mmHg 54%
    16:00 +26°C° 0 mm 6 mps 754 mmHg 54%
    17:00 +23°C° 0 mm 5 mps 754 mmHg 59%
    18:00 +22°C° 0 mm 4 mps 754 mmHg 65%
    19:00 +21°C° 0 mm 4 mps 755 mmHg 70%
    20:00 +20°C° 0 mm 4 mps 755 mmHg 71%
    21:00 +19°C° 0 mm 3 mps 755 mmHg 71%
    22:00 +18°C° 0 mm 3 mps 755 mmHg 72%
    23:00 +17°C° 0 mm 3 mps 755 mmHg 74%

    Day after tomorrow, 29 June, Saturday

    Time Temperature Precipitation Wind Pressure Humidity
    00:00 +17°C° 0 mm 3 mps 755 mmHg 75%
    01:00 +16°C° 0 mm 2 mps 755 mmHg 77%
    02:00 +16°C° 0 mm 2 mps 755 mmHg 79%
    03:00 +15°C° 0 mm 2 mps 755 mmHg 81%
    04:00 +15°C° 0 mm 2 mps 755 mmHg 83%
    05:00 +17°C° 0 mm 2 mps 756 mmHg 80%
    06:00 +18°C° 0 mm 2 mps 756 mmHg 76%
    07:00 +20°C° 0 mm 3 mps 756 mmHg 73%
    08:00 +21°C° 0 mm 3 mps 756 mmHg 66%
    09:00 +24°C° 0 mm 3 mps 756 mmHg 59%
    10:00 +25°C° 0 mm 3 mps 756 mmHg 53%
    11:00 +26°C° 0 mm 3 mps 756 mmHg 49%
    12:00 +27°C° 0 mm 3 mps 756 mmHg 45%
    13:00 +27°C° 0 mm 3 mps 755 mmHg 41%
    14:00 +28°C° 0 mm 2 mps 755 mmHg 41%
    15:00 +28°C° 0 mm 2 mps 755 mmHg 41%
    16:00 +28°C° 0 mm 1 mps 755 mmHg 42%
    17:00 +26°C° 0 mm 1 mps 755 mmHg 47%
    18:00 +25°C° 0 mm 1 mps 755 mmHg 53%
    19:00 +22°C° 0 mm 0 mps 755 mmHg 59%
    20:00 +23°C° 0 mm 1 mps 755 mmHg 62%
    21:00 +21°C° 0 mm 1 mps 755 mmHg 64%
    22:00 +20°C° 0 mm 1 mps 755 mmHg 66%
    23:00 +20°C° 0 mm 1 mps 755 mmHg 69%

    30 June, Sunday

    Time Temperature Precipitation Wind Pressure Humidity
    00:00 +19°C° 0 mm 1 mps 755 mmHg 72%
    01:00 +17°C° 0 mm 2 mps 755 mmHg 76%
    02:00 +18°C° 0 mm 1 mps 755 mmHg 78%
    03:00 +18°C° 0 mm 1 mps 755 mmHg 80%
    04:00 +16°C° 0 mm 1 mps 755 mmHg 82%
    05:00 +18°C° 0 mm 2 mps 755 mmHg 78%
    06:00 +20°C° 0 mm 2 mps 755 mmHg 74%
    07:00 +21°C° 0 mm 2 mps 755 mmHg 70%
    08:00 +24°C° 0 mm 2 mps 755 mmHg 65%
    09:00 +26°C° 0 mm 3 mps 755 mmHg 60%
    10:00 +28°C° 0 mm 3 mps 755 mmHg 55%
    11:00 +28°C° 0 mm 4 mps 755 mmHg 54%
    12:00 +29°C° 0 mm 4 mps 755 mmHg 53%
    13:00 +30°C° 0 mm 5 mps 754 mmHg 52%
    14:00 +30°C° 0 mm 5 mps 754 mmHg 53%
    15:00 +30°C° 0 mm 5 mps 754 mmHg 54%
    16:00 +30°C° 0 mm 5 mps 754 mmHg 55%
    17:00 +29°C° 0 mm 4 mps 754 mmHg 61%
    18:00 +27°C° 0 mm 4 mps 753 mmHg 68%
    19:00 +26°C° 0 mm 4 mps 753 mmHg 74%
    20:00 +25°C° 0 mm 4 mps 754 mmHg 77%
    21:00 +22°C° 0 mm 4 mps 754 mmHg 79%
    22:00 +21°C° 0 mm 4 mps 754 mmHg 82%
    23:00 +21°C° 0 mm 4 mps 754 mmHg 82%

    1 July, Monday

    Time Temperature Precipitation Wind Pressure Humidity
    00:00 +20°C° 0 mm 3 mps 754 mmHg 82%
    01:00 +19°C° 0 mm 3 mps 754 mmHg 82%
    02:00 +19°C° 0 mm 3 mps 753 mmHg 81%
    03:00 +18°C° 0 mm 3 mps 753 mmHg 80%
    04:00 +18°C° 0 mm 3 mps 753 mmHg 79%
    05:00 +20°C° 0 mm 3 mps 753 mmHg 75%
    06:00 +21°C° 0 mm 3 mps 753 mmHg 72%
    07:00 +24°C° 0 mm 3 mps 753 mmHg 68%
    08:00 +25°C° 0 mm 3 mps 753 mmHg 62%
    09:00 +27°C° 0 mm 4 mps 753 mmHg 57%
    10:00 +29°C° 0 mm 4 mps 753 mmHg 51%
    11:00 +30°C° 0 mm 4 mps 752 mmHg 49%
    12:00 +32°C° 0 mm 4 mps 752 mmHg 46%
    13:00 +33°C° 0 mm 4 mps 752 mmHg 43%
    14:00 +33°C° 0 mm 4 mps 752 mmHg 45%
    15:00 +33°C° 0 mm 4 mps 751 mmHg 47%
    16:00 +33°C° 0 mm 4 mps 751 mmHg 49%
    17:00 +30°C° 0 mm 4 mps 750 mmHg 55%
    18:00 +29°C° 0 mm 4 mps 750 mmHg 62%
    19:00 +27°C° 0 mm 5 mps 750 mmHg 68%
    20:00 +26°C° 0 mm 4 mps 750 mmHg 72%
    21:00 +24°C° 0 mm 3 mps 751 mmHg 75%
    22:00 +23°C° 0 mm 2 mps 751 mmHg 79%
    23:00 +23°C° 0.5 mm 2 mps 751 mmHg 81%

    2 July, Tuesday

    Time Temperature Precipitation Wind Pressure Humidity
    00:00 +23°C° 0.5 mm 1 mps 751 mmHg 83%
    01:00 +22°C° 0.5 mm 1 mps 751 mmHg 85%
    02:00 +22°C° 0 mm 1 mps 751 mmHg 85%
    03:00 +21°C° 0 mm 2 mps 751 mmHg 86%
    04:00 +21°C° 0 mm 2 mps 751 mmHg 87%
    05:00 +22°C° 0 mm 3 mps 751 mmHg 84%
    06:00 +24°C° 0 mm 3 mps 751 mmHg 82%
    07:00 +25°C° 0 mm 3 mps 752 mmHg 80%
    08:00 +26°C° 0 mm 4 mps 752 mmHg 73%
    09:00 +28°C° 0 mm 4 mps 752 mmHg 67%
    10:00 +29°C° 0 mm 4 mps 752 mmHg 61%
    11:00 +30°C° 0 mm 5 mps 752 mmHg 57%
    12:00 +30°C° 0 mm 5 mps 751 mmHg 54%
    13:00 +32°C° 0 mm 5 mps 751 mmHg 50%
    14:00 +30°C° 0 mm 4 mps 751 mmHg 54%
    15:00 +29°C° 0 mm 4 mps 751 mmHg 58%
    16:00 +28°C° 0 mm 4 mps 751 mmHg 63%
    17:00 +27°C° 0 mm 3 mps 751 mmHg 66%
    18:00 +26°C° 0 mm 3 mps 751 mmHg 69%
    19:00 +25°C° 0 mm 2 mps 751 mmHg 72%
    20:00 +24°C° 0 mm 3 mps 752 mmHg 71%
    21:00 +22°C° 0 mm 3 mps 752 mmHg 70%
    22:00 +22°C° 0 mm 4 mps 752 mmHg 68%
    23:00 +21°C° 0 mm 3 mps 752 mmHg 68%
    Show more